Regional Weather Roundup
Issued by NWS

Home | Current Version | Previous Version | Graphics & Text | Print | Product List | Glossary On
Versions: 1 2 3 4 5 6 7 8 9 10 11 12 13 14 15 16 17 18 19 20 21 22 23 24 25 26 27 28 29 30 31 32 33 34 35 36 37 38 39 40 41 42 43 44 45 46 47 48 49 50
210
ASUS44 KJAN 290003
RWRMS

MISSISSIPPI HOURLY WEATHER ROUNDUP
NATIONAL WEATHER SERVICE JACKSON MS
700 PM CDT THU AUG 28 2014

NOTE: "FAIR: INDICATES FEW OR NO CLOUDS BELOW 12,000 FEET WITH NO
SIGNIFICANT WEATHER AND/OR OBSTRUCTIONS TO VISIBILITY.

MSZ001>002-007>008-010>013-018>021-025>028-034>036-290100-
NORTHWEST MISSISSIPPI

CITY           SKY/WX    TMP DP  RH WIND       PRES   REMARKS
CLARKSDALE     FAIR      86  68  54 CALM      29.93S
CLEVELAND      FAIR      89  64  43 CALM      29.91S HX  90
GREENWOOD      CLEAR     81  70  69 N3        29.92S
6HR MIN TEMP:  81; 6HR MAX TEMP:  95;

GREENVILLE     CLEAR     87  73  62 CALM      29.90F HX  94
6HR MIN TEMP:  87; 6HR MAX TEMP:  95;

GRENADA        FAIR      82  68  61 CALM      29.93S
OXFORD         FAIR      84  66  54 CALM      29.96S
TUNICA         CLEAR     86  64  48 CALM      29.93S
$$

MSZ003>006-009-014>017-022>024-029>033-037>039-290100-
NORTHEAST MISSISSIPPI

CITY           SKY/WX    TMP DP  RH WIND       PRES   REMARKS
BELMONT        FAIR      85  70  61 CALM      29.96S
COLUMBUS AFB   CLEAR     89  58  34 CALM      29.93S
6HR MIN TEMP:  89; 6HR MAX TEMP:  95;

CORINTH        FAIR      86  72  62 CALM      29.95R HX  92
GOLDN TRIANGLE PTCLDY    90  61  37 SE7       29.94S
STARKVILLE     FAIR      86  59  39 CALM      29.93S
TUPELO         CLEAR     89  62  40 NE3       29.94S
6HR MIN TEMP:  88; 6HR MAX TEMP:  96;

$$

MSZ040-058-290100-
CENTRAL MISSISSIPPI

CITY           SKY/WX    TMP DP  RH WIND       PRES   REMARKS
JACKSON INTL   MOCLDY    84  71  65 S3        29.93S
6HR MIN TEMP:  84; 6HR MAX TEMP:  94;

JACKSON HAWKNS PTCLDY    84  69  60 W5        29.93F
6HR MIN TEMP:  84; 6HR MAX TEMP:  95;

MERIDIAN KEY   MOCLDY    85  66  53 S3        29.93F
6HR MIN TEMP:  85; 6HR MAX TEMP:  95;

MERIDIAN NAS   MOCLDY    84  66  54 S3        29.94S
6HR MIN TEMP:  84; 6HR MAX TEMP:  95;

RAYMOND        FAIR      81  75  83 CALM      29.93S
VICKSBURG      CLOUDY    77  73  87 CALM      29.93S
6HR MIN TEMP:  75; 6HR MAX TEMP:  93; 6HR PCP:  1.15;

$$

MSZ059>079-290100-
SOUTH MISSISSIPPI

CITY           SKY/WX    TMP DP  RH WIND       PRES   REMARKS
BROOKHAVEN     FAIR      86  73  66 CALM      29.95S HX  93
COLUMBIA       FAIR      84  75  74 CALM      29.92R HX  92
HATTIESBURG    PTCLDY    87  69  54 S7        29.94S HX  91
6HR MIN TEMP:  87; 6HR MAX TEMP:  94; 6HR PCP: TRACE;

MCCOMB         PTCLDY    86  70  58 CALM      29.93S HX  90
6HR MIN TEMP:  81; 6HR MAX TEMP:  91;

NATCHEZ        PTCLDY    84  73  70 CALM      29.93S HX  91
6HR MIN TEMP:  84; 6HR MAX TEMP:  91;

PINE BELT      PTCLDY   N/A N/A N/A SE7       29.95S
$$

MSZ080>082-290100-
COASTAL MISSISSIPPI

CITY           SKY/WX    TMP DP  RH WIND       PRES   REMARKS
BAY ST LOUIS   PTCLDY   N/A N/A N/A SE6       29.92F
BILOXI         MOCLDY    84  73  68 E8        29.93F HX  91
6HR MIN TEMP:  84; 6HR MAX TEMP:  91;

PASCAGOULA     PTCLDY    78  72  81 S3        29.93F
6HR MIN TEMP:  75; 6HR MAX TEMP:  86; 6HR PCP:  0.84;

GULFPORT       MOCLDY    86  71  60 E9        29.93S HX  91
6HR MIN TEMP:  86; 6HR MAX TEMP:  90;

$$



USA.gov is the U.S. government's official web portal to all federal, state and local government web resources and services.